Regional Weather Roundup
Issued by NWS Northern Indiana

Home | Current Version | Previous Version | Text Only | Print | Product List | Glossary On
Versions: 1 2 3 4 5 6 7 8 9 10 11 12 13 14 15 16 17 18 19 20 21 22 23 24 25 26 27 28 29 30 31 32 33 34 35 36 37 38 39 40 41 42 43 44 45 46 47 48 49 50
000
ASUS43 KIWX 220510
RWRIWX

KIWX WEATHER ROUNDUP
NATIONAL WEATHER SERVICE NORTHERN INDIANA
100 AM EDT SUN APR 22 2018

NOTE: "FAIR" INDICATES FEW OR NO CLOUDS BELOW 12,000 FEET WITH NO
SIGNIFICANT WEATHER AND/OR OBSTRUCTIONS TO VISIBILITY.

* THESE STATIONS ARE NOT UNDER NWS QUALITY CONTROL. THEY ALSO MAY NOT
  REPORT WEATHER SUCH AS PRECIPITATION OR FOG.

INZ001>027-220600-
NORTHERN INDIANA

CITY           SKY/WX    TMP DP  RH WIND       PRES   REMARKS
GARY*          FAIR      42  29  59 NE8       30.38F
VALPARAISO     FAIR      45  29  53 NE6       30.36F
MICHIGAN CITY* FAIR      37  30  75 CALM      30.37F
LAPORTE*       FAIR      46  27  46 NE6       30.37F
KNOX*          FAIR      43  32  65 NE5       30.35F
SOUTH BEND     FAIR      41  27  57 N3        30.38F
GOSHEN         FAIR      43  32  65 CALM      30.38R
MONTICELLO*    FAIR      46  26  46 CALM      30.35R
LOGANSPORT*    FAIR      46  28  49 E12       30.33F
ROCHESTER*     FAIR      50  28  43 E7        30.35F
WARSAW*        FAIR      43  32  65 E7        30.37S
AUBURN*        FAIR      45  23  42 CALM      30.39S
FORT WAYNE     CLOUDY    46  30  53 E9        30.38F
HUNTINGTON*    MOCLDY    46  30  55 E6        30.36F
PERU/GRISSOM   MOCLDY   N/A N/A N/A E8          N/A
MARION*        FAIR      47  28  47 CALM      30.35S

$$
INZ028>050-220600-
CENTRAL INDIANA

CITY           SKY/WX    TMP DP  RH WIND       PRES   REMARKS
LAFAYETTE      FAIR      48  28  46 NE6       30.34S
KOKOMO*        FAIR      45  31  58 SE7       30.36R
MUNCIE*        FAIR      47  29  49 E8        30.34F
INDIANAPOLIS   CLOUDY    52  25  35 E10       30.33R

$$
MIZ043>046-050>051-056>058-064>065-071>073-077>080-220600-
SOUTHWEST LOWER MICHIGAN

CITY           SKY/WX    TMP DP  RH WIND       PRES   REMARKS
BATTLE CREEK   FAIR      49  26  41 SE5       30.39S
BENTON HARBOR  FAIR      42  24  49 CALM      30.38F
COLDWATER*     CLOUDY    47  26  43 SE5       30.38S
HILLSDALE*     FAIR      43  23  45 E5        30.38S
HOLLAND        FAIR      38  24  57 CALM      30.39S
GRAND RAPIDS   FAIR      40  24  53 SE3       30.39R
KALAMAZOO      CLOUDY    50  28  42 CALM      30.38F
STURGIS*       FAIR      50  30  47 SE6       30.38R
THREE RIVERS*  FAIR      47  33  56 CALM      30.38S

$$
OHZ001>008-015>018-024>025-220600-
NORTHWEST OHIO

CITY           SKY/WX    TMP DP  RH WIND       PRES   REMARKS
WAUSEON*       CLOUDY    45  21  39 E5        30.39S
DEFIANCE       FAIR      45  23  42 SE3       30.39S
FINDLAY        FAIR      45  19  35 E6        30.37S
TOLEDO EXPRESS MOCLDY    44  18  35 E5        30.39F
TOLEDO METCALF FAIR      41  27  57 E5        30.40F
LIMA           MOCLDY    44  23  43 CALM      30.37R

$$
AND FOR LAKE MICHIGAN COASTAL AND OPEN LAKE BUOY OBSERVATIONS

STATION/POSITION TEMP    WIND        PRES    VSBY  WAVE
                 AIR SEA DIR/SP/G                  HT/PER
                 (F)     (DEG/KT/KT) (MB)    (MI)  (FT/S)
CALUMET HARBOR    41     360/  5/  6 1027.8F
MICHIGAN CITY     42      40/  8/  8   N/A
BURNS HARBOR      41      60/  8/  9 1028.8F
SAINT JOSEPH      44      80/  1/  1 1029.5

$$
&&




USA.gov is the U.S. government's official web portal to all federal, state and local government web resources and services.